DateTimeUTC,F1_A11,F1_S11,BsB_S11,BsG_S11,BsR_S11,BbsB_S11,BbsG_S11,BbsR_S11,BaB_A11,BaG_A11,BaR_A11,Tu_S11,T_S11,Uu_S11,U_S11,P_S11,T1_A11
2021-08-05T06:00:00Z,00000200,20000000,,,,,,,0000.51,0000.41,0000.07,17.6,24.7,02.9,01.9,0669.6,30.9
2021-08-05T06:01:00Z,00000200,20000000,,,,,,,-000.27,-000.14,-000.16,17.6,24.7,02.9,01.9,0669.6,30.9
2021-08-05T06:02:00Z,00000200,20000000,,,,,,,-000.05,0000.15,-000.02,17.6,24.7,02.9,01.9,0669.6,30.9
2021-08-05T06:03:00Z,00000200,60000000,,,,,,,0001.05,0000.53,0000.51,17.6,24.7,02.9,01.9,0669.6,30.9
2021-08-05T06:04:00Z,00000200,40000000,0002.96,0002.71,0001.65,-000.14,0000.46,0000.19,0000.92,0001.21,0000.94,17.8,24.5,03.1,02.1,0670.6,30.9
2021-08-05T06:05:00Z,00000200,00000000,0003.12,0002.60,0001.63,0000.14,0000.63,0000.23,0000.72,0000.49,0000.56,17.9,24.5,03.1,02.1,0670.7,30.9
2021-08-05T06:06:00Z,00000200,00000000,0003.85,0002.64,0001.50,0000.04,0000.30,0000.43,0000.91,0000.86,0000.48,17.8,24.4,03.2,02.1,0670.7,30.9
2021-08-05T06:07:00Z,00000200,00000000,0003.51,0002.88,0001.50,0000.64,0000.32,0000.19,0001.23,0001.03,0000.88,17.8,24.4,03.1,02.1,0670.7,30.9
2021-08-05T06:08:00Z,00000200,00000000,0003.26,0002.60,0001.65,0000.18,0000.52,0000.50,0001.31,0000.90,0000.68,17.8,24.4,03.2,02.2,0670.7,30.9
2021-08-05T06:09:00Z,00000200,00000000,0004.44,0002.87,0001.48,0000.30,0000.56,0000.07,0000.84,0000.97,0000.90,17.8,24.4,03.3,02.2,0670.7,30.9
2021-08-05T06:10:00Z,00000200,00000000,0003.87,0002.94,0001.34,0000.45,0000.27,0000.24,0000.91,0000.68,0000.54,17.7,24.3,03.3,02.2,0670.7,30.9
2021-08-05T06:11:00Z,00000200,00000000,0003.52,0002.61,0001.90,0000.33,0000.24,0000.40,0000.95,0001.02,0000.70,17.7,24.3,03.3,02.2,0670.7,30.9
2021-08-05T06:12:00Z,00000200,00000000,0003.32,0002.40,0001.91,0000.05,0000.16,0000.40,0000.53,0000.50,0000.46,17.7,24.3,03.3,02.2,0670.7,30.9
2021-08-05T06:13:00Z,00000200,00000000,0003.31,0002.69,0001.86,0000.21,0000.54,0000.17,0001.31,0001.29,0000.73,17.7,24.3,03.3,02.2,0670.6,30.9
2021-08-05T06:14:00Z,00000200,00000000,0004.57,0002.79,0001.36,0000.49,0000.34,0000.26,0000.85,0000.84,0000.62,17.7,24.3,03.3,02.2,0670.6,30.9
2021-08-05T06:15:00Z,00000200,00000000,0003.64,0002.66,0001.66,0000.63,0000.44,0000.28,0000.95,0000.96,0000.74,17.7,24.3,03.2,02.2,0670.7,30.9
2021-08-05T06:16:00Z,00000200,00000000,0004.16,0002.54,0001.44,0000.37,0000.28,0000.20,0001.07,0000.80,0000.95,17.8,24.3,03.1,02.1,0670.7,30.9
2021-08-05T06:17:00Z,00000200,00000000,0003.39,0002.91,0001.24,0000.38,0000.47,0000.08,0000.80,0000.81,0000.51,17.9,24.4,03.2,02.1,0670.7,30.9
2021-08-05T06:18:00Z,00000200,00000000,0003.33,0002.49,0001.48,0000.18,0000.41,0000.34,0001.07,0000.79,0000.53,17.9,24.3,03.2,02.2,0670.7,30.9
2021-08-05T06:19:00Z,00000200,00000000,0003.30,0002.59,0001.68,0000.71,0000.12,0000.30,0000.86,0000.77,0000.68,17.9,24.3,03.3,02.2,0670.7,30.9
2021-08-05T06:20:00Z,00000200,00000000,0002.83,0002.14,0001.01,0000.53,0000.47,0000.18,0001.02,0001.11,0000.54,17.9,24.3,03.2,02.2,0670.7,30.9
2021-08-05T06:21:00Z,00000200,00000000,0002.56,0001.91,0001.21,0000.21,0000.88,0000.44,0000.37,0000.29,0000.37,17.8,24.3,03.2,02.2,0670.7,30.9
2021-08-05T06:22:00Z,00000200,00000000,0003.47,0002.30,0001.41,0000.09,0000.31,0000.52,0000.81,0000.70,0000.47,17.8,24.3,03.1,02.1,0670.7,30.9
2021-08-05T06:23:00Z,00000200,00000000,0001.90,0002.64,0001.39,0000.59,0000.49,0000.21,0000.73,0000.59,0000.42,17.8,24.3,03.2,02.1,0670.7,30.9
2021-08-05T06:24:00Z,00000200,00000000,0003.85,0002.24,0001.46,0000.11,0000.26,0000.10,0000.60,0000.92,0001.01,17.8,24.3,03.2,02.2,0670.7,30.9
2021-08-05T06:25:00Z,00000200,00000000,0003.80,0002.45,0001.53,-000.00,0000.48,0000.28,0001.05,0000.73,0000.15,17.7,24.2,03.2,02.2,0670.7,30.9
2021-08-05T06:26:00Z,00000200,00000000,0002.67,0002.00,0001.17,0000.02,0000.33,0000.23,0000.44,0000.34,0000.47,17.7,24.2,03.2,02.1,0670.7,30.9
2021-08-05T06:27:00Z,00000200,00000000,0002.82,0002.03,0000.89,0000.08,0000.55,0000.30,0000.79,0000.80,0000.41,17.7,24.2,03.2,02.1,0670.7,30.9
2021-08-05T06:28:00Z,00000200,00000000,0003.23,0002.12,0001.53,0000.96,0000.26,0000.00,0001.05,0000.51,0000.48,17.7,24.2,03.0,02.0,0670.7,30.9
2021-08-05T06:29:00Z,00000200,00000000,0003.14,0002.08,0001.27,-000.04,0000.29,0000.25,0000.58,0000.71,0000.91,17.7,24.2,03.0,02.0,0670.7,30.9
2021-08-05T06:30:00Z,00000200,00000000,0003.68,0002.23,0001.44,0000.79,0000.41,0000.42,0000.99,0001.11,0000.63,17.7,24.2,03.0,02.0,0670.7,30.9
2021-08-05T06:31:00Z,00000200,00000000,0002.70,0001.44,0001.27,0000.13,0000.32,0000.30,0000.06,0000.27,0000.15,17.8,24.3,03.0,02.0,0670.6,30.9
2021-08-05T06:32:00Z,00000200,00000000,0000.83,0000.37,0000.11,0000.25,0000.06,0000.19,0000.08,-000.34,-000.23,17.8,24.3,02.9,02.0,0670.6,30.9
2021-08-05T06:33:00Z,00000200,00000000,0000.47,0000.09,0000.48,-000.22,-000.08,0000.32,0000.15,0000.25,0000.05,17.8,24.3,02.8,01.9,0670.6,30.9
2021-08-05T06:34:00Z,00000200,00000000,0000.31,0000.51,0000.36,0000.23,-000.07,-000.06,-000.35,-000.14,-000.33,17.8,24.3,02.7,01.8,0670.6,30.9
2021-08-05T06:35:00Z,00000200,00000000,0001.78,0000.89,0000.46,-000.19,0000.41,0000.17,0000.77,0000.50,0000.19,17.8,24.3,02.7,01.9,0670.6,30.9
2021-08-05T06:36:00Z,00000200,00000000,0001.89,0001.39,0000.92,0000.18,0000.22,0000.12,0000.06,0000.08,0000.34,17.8,24.3,02.7,01.8,0670.6,30.9
2021-08-05T06:37:00Z,00000200,00000000,0002.08,0001.60,0000.91,0000.08,0000.49,0000.21,0000.62,0000.56,0000.59,17.8,24.2,02.7,01.8,0670.6,30.9
2021-08-05T06:38:00Z,00000200,00000000,0001.89,0001.66,0001.03,0000.52,0000.09,0000.27,0000.78,0001.15,0000.47,17.8,24.2,02.8,01.9,0670.7,30.9
2021-08-05T06:39:00Z,00000200,00000000,0002.46,0001.50,0001.17,0000.05,0000.28,-000.02,0001.00,0000.38,0000.51,17.7,24.2,02.9,01.9,0670.7,30.9
2021-08-05T06:40:00Z,00000200,00000000,0002.75,0001.65,0001.24,0000.06,0000.61,0000.28,0001.02,0000.60,0000.59,17.7,24.2,02.9,02.0,0670.7,30.9
2021-08-05T06:41:00Z,00000200,00000000,0003.51,0001.84,0001.24,0000.22,0000.32,0000.02,0000.61,0000.23,0000.43,17.7,24.2,03.0,02.0,0670.7,30.9
2021-08-05T06:42:00Z,00000200,00000000,0002.67,0002.23,0001.37,0000.52,0000.26,0000.06,0000.85,0001.73,0000.99,17.7,24.2,03.1,02.1,0670.7,30.9
2021-08-05T06:43:00Z,00000200,00000000,0003.19,0002.55,0001.55,0001.08,0000.65,0000.51,0000.82,0000.46,0000.63,17.6,24.1,03.2,02.1,0670.6,30.9
2021-08-05T06:44:00Z,00000200,00000000,0003.25,0002.07,0001.37,0000.14,0000.26,0000.43,0000.77,0001.18,0000.65,17.6,24.1,03.2,02.1,0670.6,30.9
2021-08-05T06:45:00Z,00000200,00000000,0003.72,0002.47,0001.06,0000.80,0000.12,0000.41,0001.61,0000.44,0000.90,17.6,24.1,03.2,02.1,0670.6,30.9
2021-08-05T06:46:00Z,00000200,00000000,0003.50,0002.71,0001.61,0000.36,0000.41,0000.36,0000.73,0001.40,0000.75,17.7,24.2,03.2,02.2,0670.6,30.9
2021-08-05T06:47:00Z,00000200,00000000,0003.08,0002.63,0001.71,0000.02,0000.25,0000.23,0000.97,0000.85,0000.56,17.8,24.2,03.3,02.2,0670.6,30.9
2021-08-05T06:48:00Z,00000200,00000000,0003.33,0002.74,0001.39,0000.51,0000.48,0000.48,0000.96,0000.91,0000.90,17.8,24.2,03.3,02.2,0670.7,30.9
2021-08-05T06:49:00Z,00000200,00000000,0003.32,0002.87,0001.70,0000.68,0000.13,0000.16,0001.08,0000.83,0000.83,17.8,24.2,03.4,02.3,0670.7,30.9
2021-08-05T06:50:00Z,00000200,00000000,0004.33,0002.96,0001.76,0000.36,0000.23,0000.20,0001.09,0001.34,0000.57,17.8,24.2,03.5,02.3,0670.7,30.9
2021-08-05T06:51:00Z,00000200,00000000,0004.29,0003.05,0001.63,0000.48,0000.42,0000.44,0001.19,0000.75,0001.01,17.8,24.2,03.5,02.4,0670.7,30.9
2021-08-05T06:52:00Z,00000200,00000000,0004.78,0003.06,0001.69,0000.62,0000.35,0000.23,0001.56,0001.85,0001.08,17.7,24.2,03.5,02.4,0670.7,30.9
2021-08-05T06:53:00Z,00000200,00000000,0005.21,0003.71,0002.29,0000.81,0000.60,0000.74,0001.78,0001.07,0001.25,17.7,24.2,03.8,02.5,0670.7,30.9
2021-08-05T06:54:00Z,00000200,00000000,0005.15,0003.37,0001.97,0000.61,0000.49,0000.51,0001.21,0001.64,0001.35,17.7,24.1,04.0,02.7,0670.7,30.9
2021-08-05T06:55:00Z,00000200,00000000,0005.44,0003.28,0002.18,0000.74,0000.68,0000.46,0002.13,0002.25,0001.85,17.7,24.1,04.0,02.7,0670.7,30.9
2021-08-05T06:56:00Z,00000200,00000000,0005.95,0003.57,0002.15,0000.39,0000.74,0000.28,0001.30,0000.57,0000.60,17.7,24.1,04.4,03.0,0670.7,30.9
2021-08-05T06:57:00Z,00000200,40000000,,,,,,,-000.73,-000.28,-000.78,17.7,24.1,04.4,03.0,0670.7,30.9
2021-08-05T06:58:00Z,00000200,60000000,,,,,,,0000.28,0000.45,0000.47,17.4,24.3,04.0,02.6,0669.7,30.9
2021-08-05T06:59:00Z,00000200,20000000,,,,,,,0001.29,0000.79,0001.02,17.4,24.4,04.0,02.6,0669.7,30.9
